Location: Avully
(45.9633°N, 6.0228°E)
Time: 14:50:50
(UTC+00:00)

Cosmos 1763 Rocket - Pass Details

Date: 23 May 2024
Orbit: 730 x 778 km, 74.0° (Epoch: 18 June)

Event Time Altitude Azimuth Distance (km) Brightness Sun altitude
Rises 00:50:09 0° 332° (NNW) 3,270 7.4 -21.1°
Reaches altitude 10° 00:52:40 10° 325° (NW) 2,337 6.4 -21.0°
Maximum altitude 00:57:36 41° 257° (WSW) 1,120 4.1 -20.7°
Enters shadow 00:58:23 38° 235° (SW) 1,165 4.0 -20.6°
